OPS 4682 DEB, 38396

Orbit data source: Space-Track

OPS 4682 DEB, 38396 is space debris in LEO originally from a launch on Sat, 03 Apr 1965 UTC launched from the Air Force Western Test Range (AFWTR). Debris objects in space refer to the collection of defunct objects orbiting the Earth. Examples of debris include non-operational satellites, rocket bodies, and fragments generated from explosions, collisions, or faulty payload assembly.

Loading next visibility...
Identifier
38396, 1965-027CZ
Orbit
LEO
Country
Flag of USUS
Related business
Manufacturer
Unknown
Mission
Spacecraft
Bus & Motor
Unknown
Mass
Unknown
Launch date (UTC)
1965-04-03 (61 years ago)
Launch vehicle
Unknown
Launch site
Air Force Western Test Range (AFWTR)
Object type
Payload
Rocket body
Debris
Shape & HBR
Unknown shape, 0.1 m
Radar Cross Section
Medium (>0.1 m² and <1 m²)

Expand to show TLE details & history
Last TLE update: 2 days ago

TLE from 2 days ago
0 OPS 4682 DEB
1 38396U 65027CZ  26262.25788644 -.00000211  00000-0 -74558-3 0  9999
2 38396  90.2573  13.5156 0038149 201.5127 158.4392 12.97944248675405
Epoch: 2026-09-19T06:11Z
TLE epoch observation values (Epoch: 2026-09-19T06:11:21.388Z)
Latitude
-0.00007°
Longitude
-77.49252°
Altitude
1,300.188 km
Speed
7.194 km/s
True Right ascension
00h 54m 03s
True Declination
0° 00' 00"
Sunlit
Object was in full shadow at epoch
Visualization orbit readout
Latitude
Unknown
Longitude
Unknown
Altitude
Unknown
Speed
Unknown
Apparent Right ascension
Unknown
Apparent Declination
Unknown
Sunlit
N/A
Visualization observer readout
Local Sidereal Time
20:50:15
Azimuth
Unknown
Elevation
Unknown
Doppler factor
Unknown
Orbital elements
Apogee altitude
1,296.448 km
Perigee altitude
1,238.115 km
Semi-major axis
7,645.419 km
Eccentricity
0.00381
Inclination
90.2573°
RAAN
13.5156°
Arg. of periapsis
201.5127°
True anomaly
158.59914°
Mean anomaly
158.4392°
Eccentric anomaly
158.51924°
Mean motion
3.24669 °/min
Orbital period
110.88 mins
BSTAR
-0.00074558
Loading maneuver chart data...
Computing Atmospheric mass density...
Loading historical data...
Loading historical data...
Loading historical data...
Loading historical data...
Loading historical data...
Loading historical data...
Loading historical data...

Documentation

Showing up to 5 results
|